Location: Jackson Park
(37.2862°N, 79.9123°W)
Time: 19:56:16
(UTC+00:00)

Vanguard 3 - Pass Details

Date: 13 May 2026
Orbit: 507 x 3205 km, 33.4° (Epoch: 31 May)

Event Time Altitude Azimuth Distance (km) Brightness Sun altitude
Rises 19:05:58 0° 238° (WSW) 6,635 12.3 59.5°
Reaches altitude 10° 19:10:07 10° 235° (SW) 5,828 12.2 58.8°
Maximum altitude 19:28:58 64° 159° (SSE) 3,385 11.2 55.4°
Drops below altitude 10° 19:45:46 10° 84° (E) 5,282 11.0 52.3°
Sets 19:49:17 0° 81° (E) 6,012 11.2 51.7°
